Location: Buckeye Ditch
(40.9104°N, 122.9517°W)
Time: 15:19:57
(UTC+00:00)

Transit 2A - Pass Details

Date: 25 May 2025
Orbit: 599 x 947 km, 66.7° (Epoch: 15 June)

Event Time Altitude Azimuth Distance (km) Brightness Sun altitude
Rises 22:40:43 0° 330° (NNW) 2,902 9.1 52.4°
Reaches altitude 10° 22:42:55 10° 330° (NNW) 2,021 8.4 52.0°
Maximum altitude 22:47:28 88° 244° (WSW) 673 6.8 51.2°
Drops below altitude 10° 22:52:24 10° 153° (SSE) 2,187 8.4 50.3°
Sets 22:54:52 0° 153° (SSE) 3,162 9.1 49.8°
